| time (UTC) | temp C | wind direction | speed KPH | gust KPH | rain 1hr cm | rain 24hr cm | rain mn cm | humidity % | barometer mb |
| 20260507124807 | 9 | 115 | 1.6 | 1.6 | 0.00 | 0.00 | 0.00 | 51 | 1013.1 |
| 20260507124303 | 9 | 346 | 1.6 | 4.8 | 0.00 | 0.00 | 0.00 | 53 | 1012.9 |
| 20260507123802 | 9 | 31 | 4.8 | 6.4 | 0.00 | 0.00 | 0.00 | 51 | 1013.1 |
| 20260507123259 | 8 | 132 | 0.0 | 0.0 | 0.00 | 0.00 | 0.00 | 53 | 1013.1 |
| 20260507122754 | 9 | 320 | 4.8 | 6.4 | 0.00 | 0.00 | 0.00 | 55 | 1013.0 |
| 20260507122250 | 9 | 44 | 1.6 | 1.6 | 0.00 | 0.00 | 0.00 | 55 | 1013.3 |
| 20260507121746 | 8 | 134 | 0.0 | 0.0 | 0.00 | 0.00 | 0.00 | 55 | 1013.1 |
| 20260507121242 | 8 | 113 | 0.0 | 0.0 | 0.00 | 0.00 | 0.00 | 57 | 1013.0 |
| 20260507120738 | 8 | 66 | 1.6 | 1.6 | 0.00 | 0.00 | 0.00 | 57 | 1013.0 |
| 20260507120235 | 7 | 177 | 3.2 | 4.8 | 0.00 | 0.00 | 0.00 | 60 | 1013.1 |
| 20260507115731 | 7 | 355 | 6.4 | 6.4 | 0.00 | 0.00 | 0.00 | 59 | 1013.3 |
| 20260507115227 | 7 | 20 | 1.6 | 4.8 | 0.00 | 0.00 | 0.00 | 61 | 1012.9 |
| 20260507114723 | 7 | 131 | 0.0 | 0.0 | 0.00 | 0.00 | 0.00 | 63 | 1013.0 |
| 20260507114221 | 7 | 95 | 3.2 | 4.8 | 0.00 | 0.00 | 0.00 | 61 | 1013.0 |
| 20260507113718 | 7 | 122 | 0.0 | 0.0 | 0.00 | 0.00 | 0.00 | 63 | 1012.9 |
| 20260507113215 | 6 | 82 | 1.6 | 1.6 | 0.00 | 0.00 | 0.00 | 63 | 1012.7 |
| 20260507112712 | 6 | 79 | 1.6 | 1.6 | 0.00 | 0.00 | 0.00 | 64 | 1012.8 |
| 20260507112209 | 6 | 93 | 0.0 | 0.0 | 0.00 | 0.00 | 0.00 | 65 | 1012.6 |
| 20260507111706 | 6 | 120 | 0.0 | 0.0 | 0.00 | 0.00 | 0.00 | 65 | 1012.5 |
| 20260507111203 | 6 | 150 | 0.0 | 0.0 | 0.00 | 0.00 | 0.00 | 67 | 1012.5 |
| 20260507110659 | 5 | 123 | 0.0 | 0.0 | 0.00 | 0.00 | 0.00 | 68 | 1012.5 |
| 20260507110156 | 5 | 137 | 0.0 | 1.6 | 0.00 | 0.00 | 0.00 | 68 | 1012.7 |
| 20260507105653 | 5 | 125 | 0.0 | 0.0 | 0.00 | 0.00 | 0.00 | 69 | 1012.4 |
| 20260507105149 | 5 | 112 | 0.0 | 0.0 | 0.00 | 0.00 | 0.00 | 69 | 1012.3 |
| 20260507104647 | 5 | 115 | 0.0 | 1.6 | 0.00 | 0.00 | 0.00 | 70 | 1012.2 |
| 20260507104142 | 5 | 132 | 0.0 | 0.0 | 0.00 | 0.00 | 0.00 | 71 | 1012.3 |
| 20260507103638 | 5 | 133 | 0.0 | 0.0 | 0.00 | 0.00 | 0.00 | 72 | 1011.9 |
| 20260507103136 | 5 | 133 | 0.0 | 0.0 | 0.00 | 0.00 | 0.00 | 72 | 1012.1 |
| 20260507102632 | 5 | 130 | 0.0 | 0.0 | 0.00 | 0.00 | 0.00 | 71 | 1012.1 |
| 20260507102128 | 5 | 154 | 0.0 | 1.6 | 0.00 | 0.00 | 0.00 | 71 | 1012.3 |
| 20260507101624 | 5 | 118 | 0.0 | 0.0 | 0.00 | 0.00 | 0.00 | 71 | 1012.1 |
| 20260507101120 | 5 | 132 | 0.0 | 0.0 | 0.00 | 0.00 | 0.00 | 71 | 1012.2 |
| 20260507100618 | 5 | 141 | 0.0 | 0.0 | 0.00 | 0.00 | 0.00 | 70 | 1012.2 |
| 20260507100116 | 5 | 135 | 0.0 | 0.0 | 0.00 | 0.00 | 0.00 | 70 | 1012.0 |
| 20260507095614 | 5 | 135 | 0.0 | 1.6 | 0.00 | 0.00 | 0.00 | 71 | 1011.9 |
| 20260507095110 | 5 | 59 | 1.6 | 1.6 | 0.00 | 0.00 | 0.00 | 71 | 1012.0 |
| 20260507094606 | 5 | 130 | 0.0 | 1.6 | 0.00 | 0.00 | 0.00 | 71 | 1012.0 |
| 20260507094103 | 5 | 152 | 0.0 | 1.6 | 0.00 | 0.00 | 0.00 | 71 | 1012.0 |
| 20260507093600 | 5 | 136 | 0.0 | 0.0 | 0.00 | 0.00 | 0.00 | 72 | 1012.0 |
| 20260507093059 | 5 | 61 | 1.6 | 1.6 | 0.00 | 0.00 | 0.00 | 71 | 1011.9 |
| 20260507092555 | 6 | 155 | 0.0 | 1.6 | 0.00 | 0.00 | 0.00 | 70 | 1011.9 |
| 20260507092052 | 6 | 158 | 0.0 | 1.6 | 0.00 | 0.00 | 0.00 | 69 | 1011.9 |
| 20260507091549 | 6 | 147 | 0.0 | 0.0 | 0.00 | 0.00 | 0.00 | 70 | 1011.8 |
| 20260507091045 | 6 | 155 | 0.0 | 1.6 | 0.00 | 0.00 | 0.00 | 70 | 1011.7 |
| 20260507090541 | 6 | 124 | 0.0 | 1.6 | 0.00 | 0.00 | 0.00 | 69 | 1011.8 |
| 20260507090038 | 6 | 137 | 0.0 | 0.0 | 0.00 | 0.00 | 0.00 | 68 | 1011.8 |
| 20260507085535 | 6 | 108 | 0.0 | 0.0 | 0.00 | 0.00 | 0.00 | 66 | 1011.7 |
| 20260507085031 | 7 | 112 | 0.0 | 0.0 | 0.00 | 0.00 | 0.00 | 65 | 1011.9 |
| 20260507084528 | 7 | 118 | 0.0 | 0.0 | 0.00 | 0.00 | 0.00 | 65 | 1011.7 |
| 20260507084025 | 7 | 114 | 0.0 | 0.0 | 0.00 | 0.00 | 0.00 | 64 | 1011.8 |
| 20260507083521 | 7 | 121 | 0.0 | 1.6 | 0.00 | 0.00 | 0.00 | 64 | 1011.9 |
| 20260507083019 | 7 | 145 | 0.0 | 0.0 | 0.00 | 0.00 | 0.00 | 62 | 1012.2 |
| 20260507082514 | 7 | 146 | 0.0 | 1.6 | 0.00 | 0.00 | 0.00 | 63 | 1011.9 |
| 20260507082011 | 7 | 88 | 0.0 | 1.6 | 0.00 | 0.00 | 0.00 | 62 | 1012.1 |
| 20260507081507 | 7 | 62 | 1.6 | 1.6 | 0.00 | 0.00 | 0.00 | 62 | 1012.1 |
| 20260507081004 | 7 | 158 | 1.6 | 1.6 | 0.00 | 0.00 | 0.00 | 61 | 1012.1 |
| 20260507080500 | 7 | 125 | 1.6 | 1.6 | 0.00 | 0.00 | 0.00 | 62 | 1012.2 |
| 20260507075955 | 7 | 97 | 1.6 | 1.6 | 0.00 | 0.00 | 0.00 | 62 | 1012.2 |
| 20260507075452 | 8 | 69 | 1.6 | 1.6 | 0.00 | 0.00 | 0.00 | 62 | 1011.8 |
| 20260507074949 | 8 | 205 | 1.6 | 1.6 | 0.00 | 0.00 | 0.00 | 59 | 1012.0 |
| 20260507074446 | 8 | 159 | 0.0 | 1.6 | 0.00 | 0.00 | 0.00 | 62 | 1011.8 |
| 20260507073944 | 8 | 202 | 1.6 | 1.6 | 0.00 | 0.00 | 0.00 | 61 | 1012.1 |
| 20260507073440 | 8 | 333 | 1.6 | 1.6 | 0.00 | 0.00 | 0.00 | 60 | 1012.0 |
| 20260507072936 | 8 | 96 | 0.0 | 1.6 | 0.00 | 0.00 | 0.00 | 59 | 1011.9 |
| 20260507072434 | 8 | 297 | 4.8 | 6.4 | 0.00 | 0.00 | 0.00 | 59 | 1011.9 |
| 20260507071931 | 8 | 49 | 1.6 | 1.6 | 0.00 | 0.00 | 0.00 | 59 | 1011.8 |
| 20260507071428 | 8 | 317 | 1.6 | 1.6 | 0.00 | 0.00 | 0.00 | 59 | 1012.0 |
| 20260507070925 | 8 | 90 | 3.2 | 4.8 | 0.00 | 0.00 | 0.00 | 59 | 1012.1 |
| 20260507070422 | 8 | 335 | 1.6 | 4.8 | 0.00 | 0.00 | 0.00 | 60 | 1012.1 |
| 20260507065919 | 8 | 312 | 3.2 | 4.8 | 0.00 | 0.00 | 0.00 | 59 | 1011.8 |
| 20260507065416 | 8 | 67 | 1.6 | 1.6 | 0.00 | 0.00 | 0.00 | 60 | 1011.9 |
| 20260507064913 | 8 | 23 | 1.6 | 1.6 | 0.00 | 0.00 | 0.00 | 59 | 1012.0 |
| 20260507064411 | 8 | 327 | 3.2 | 4.8 | 0.00 | 0.00 | 0.00 | 59 | 1012.1 |
| 20260507063909 | 8 | 78 | 1.6 | 1.6 | 0.00 | 0.00 | 0.00 | 58 | 1011.9 |
| 20260507063406 | 8 | 185 | 3.2 | 4.8 | 0.00 | 0.00 | 0.00 | 58 | 1012.1 |
| 20260507062903 | 8 | 355 | 4.8 | 6.4 | 0.00 | 0.00 | 0.00 | 57 | 1012.1 |
| 20260507062359 | 8 | 23 | 4.8 | 4.8 | 0.00 | 0.00 | 0.00 | 58 | 1012.4 |
| 20260507061857 | 8 | 167 | 1.6 | 1.6 | 0.00 | 0.00 | 0.00 | 59 | 1012.2 |
| 20260507061355 | 8 | 41 | 1.6 | 1.6 | 0.00 | 0.00 | 0.00 | 58 | 1012.1 |
| 20260507060853 | 8 | 139 | 0.0 | 1.6 | 0.00 | 0.00 | 0.00 | 59 | 1012.2 |
| 20260507060349 | 8 | 152 | 3.2 | 4.8 | 0.00 | 0.00 | 0.00 | 58 | 1012.0 |
| 20260507055846 | 9 | 92 | 3.2 | 4.8 | 0.00 | 0.00 | 0.00 | 58 | 1012.1 |
| 20260507055341 | 9 | 7 | 4.8 | 4.8 | 0.00 | 0.00 | 0.00 | 55 | 1012.3 |
| 20260507054838 | 9 | 133 | 1.6 | 1.6 | 0.00 | 0.00 | 0.00 | 57 | 1012.0 |
| 20260507054334 | 9 | 151 | 1.6 | 1.6 | 0.00 | 0.00 | 0.00 | 58 | 1011.9 |
| 20260507053831 | 9 | 130 | 0.0 | 0.0 | 0.00 | 0.00 | 0.00 | 60 | 1012.0 |
| 20260507053329 | 9 | 117 | 0.0 | 0.0 | 0.00 | 0.00 | 0.00 | 59 | 1012.1 |
| 20260507052828 | 9 | 139 | 0.0 | 0.0 | 0.00 | 0.00 | 0.00 | 59 | 1012.2 |
| 20260507052324 | 9 | 134 | 0.0 | 0.0 | 0.00 | 0.00 | 0.00 | 59 | 1012.2 |
| 20260507051822 | 9 | 169 | 0.0 | 0.0 | 0.00 | 0.00 | 0.00 | 58 | 1012.0 |
| 20260507051319 | 9 | 13 | 1.6 | 1.6 | 0.00 | 0.00 | 0.00 | 58 | 1012.1 |
| 20260507050816 | 9 | 125 | 0.0 | 1.6 | 0.00 | 0.00 | 0.00 | 58 | 1012.2 |
| 20260507050312 | 9 | 115 | 0.0 | 0.0 | 0.00 | 0.00 | 0.00 | 58 | 1012.3 |
| 20260507045810 | 9 | 15 | 4.8 | 6.4 | 0.00 | 0.00 | 0.00 | 56 | 1012.1 |
| 20260507045307 | 9 | 100 | 1.6 | 1.6 | 0.00 | 0.00 | 0.00 | 56 | 1012.4 |
| 20260507044803 | 10 | 239 | 1.6 | 1.6 | 0.00 | 0.00 | 0.00 | 56 | 1012.2 |
| 20260507044259 | 9 | 145 | 0.0 | 0.0 | 0.00 | 0.00 | 0.00 | 57 | 1012.2 |
| 20260507043755 | 10 | 116 | 0.0 | 0.0 | 0.00 | 0.00 | 0.00 | 59 | 1012.5 |
| 20260507043252 | 10 | 115 | 1.6 | 1.6 | 0.00 | 0.00 | 0.00 | 59 | 1012.2 |
| 20260507042749 | 10 | 97 | 1.6 | 1.6 | 0.00 | 0.00 | 0.00 | 57 | 1012.2 |
| 20260507042244 | 10 | 159 | 1.6 | 1.6 | 0.00 | 0.00 | 0.00 | 62 | 1012.5 |
| 20260507041742 | 10 | 106 | 0.0 | 0.0 | 0.00 | 0.00 | 0.00 | 69 | 1012.2 |
| 20260507041238 | 10 | 120 | 0.0 | 0.0 | 0.00 | 0.00 | 0.00 | 69 | 1012.2 |
| 20260507040735 | 10 | 113 | 0.0 | 0.0 | 0.00 | 0.00 | 0.00 | 68 | 1012.4 |
| 20260507040231 | 10 | 75 | 0.0 | 1.6 | 0.00 | 0.00 | 0.00 | 70 | 1012.3 |
| 20260507035727 | 10 | 128 | 0.0 | 0.0 | 0.00 | 0.53 | 0.53 | 69 | 1011.9 |
| 20260507035223 | 10 | 115 | 1.6 | 4.8 | 0.00 | 0.53 | 0.53 | 69 | 1011.8 |
| 20260507034720 | 10 | 117 | 0.0 | 0.0 | 0.00 | 0.53 | 0.53 | 72 | 1011.9 |
| 20260507034217 | 10 | 300 | 3.2 | 4.8 | 0.00 | 0.53 | 0.53 | 71 | 1011.9 |
| 20260507033716 | 10 | 105 | 0.0 | 0.0 | 0.00 | 0.53 | 0.53 | 72 | 1012.0 |
| 20260507033213 | 10 | 110 | 0.0 | 0.0 | 0.00 | 0.53 | 0.53 | 72 | 1012.0 |
| 20260507032710 | 10 | 111 | 0.0 | 0.0 | 0.00 | 0.53 | 0.53 | 72 | 1012.0 |
| 20260507032206 | 10 | 254 | 0.0 | 4.8 | 0.00 | 0.53 | 0.53 | 72 | 1012.1 |
| 20260507031703 | 10 | 133 | 0.0 | 0.0 | 0.00 | 0.53 | 0.53 | 72 | 1012.0 |
| 20260507031159 | 10 | 114 | 0.0 | 0.0 | 0.00 | 0.53 | 0.53 | 72 | 1011.9 |
| 20260507030656 | 10 | 114 | 0.0 | 0.0 | 0.00 | 0.53 | 0.53 | 72 | 1012.2 |
| 20260507030154 | 10 | 137 | 0.0 | 0.0 | 0.00 | 0.53 | 0.53 | 72 | 1012.1 |
| 20260507025651 | 10 | 102 | 1.6 | 1.6 | 0.00 | 0.53 | 0.53 | 71 | 1011.7 |
| 20260507025148 | 10 | 125 | 0.0 | 0.0 | 0.00 | 0.53 | 0.53 | 72 | 1011.8 |
| 20260507024646 | 10 | 88 | 1.6 | 1.6 | 0.00 | 0.53 | 0.53 | 71 | 1011.5 |
| 20260507024143 | 10 | 83 | 1.6 | 1.6 | 0.00 | 0.53 | 0.53 | 72 | 1011.4 |
| 20260507023638 | 10 | 46 | 1.6 | 1.6 | 0.00 | 0.53 | 0.53 | 73 | 1011.2 |
| 20260507023136 | 10 | 15 | 9.7 | 11.3 | 0.00 | 0.53 | 0.53 | 72 | 1011.5 |
| 20260507022633 | 11 | 102 | 0.0 | 0.0 | 0.00 | 0.53 | 0.53 | 73 | 1011.2 |
| 20260507022128 | 11 | 159 | 1.6 | 1.6 | 0.00 | 0.53 | 0.53 | 73 | 1011.3 |
| 20260507021625 | 10 | 152 | 0.0 | 0.0 | 0.00 | 0.53 | 0.53 | 73 | 1011.3 |
| 20260507021120 | 11 | 112 | 0.0 | 0.0 | 0.00 | 0.53 | 0.53 | 74 | 1011.2 |
| 20260507020619 | 11 | 157 | 0.0 | 0.0 | 0.00 | 0.53 | 0.53 | 72 | 1011.4 |
| 20260507020115 | 11 | 86 | 1.6 | 1.6 | 0.00 | 0.53 | 0.53 | 72 | 1011.3 |
| 20260507015614 | 11 | 145 | 0.0 | 0.0 | 0.00 | 0.53 | 0.53 | 73 | 1011.4 |
| 20260507015110 | 11 | 140 | 4.8 | 4.8 | 0.00 | 0.53 | 0.53 | 71 | 1011.4 |
| 20260507014607 | 11 | 146 | 0.0 | 1.6 | 0.00 | 0.53 | 0.53 | 73 | 1011.5 |
| 20260507014103 | 11 | 140 | 0.0 | 1.6 | 0.00 | 0.53 | 0.53 | 73 | 1011.5 |
| 20260507013559 | 11 | 157 | 0.0 | 1.6 | 0.00 | 0.53 | 0.53 | 74 | 1011.3 |
| 20260507013057 | 11 | 105 | 0.0 | 0.0 | 0.00 | 0.53 | 0.53 | 74 | 1011.4 |
| 20260507012554 | 11 | 161 | 0.0 | 1.6 | 0.00 | 0.53 | 0.53 | 74 | 1011.5 |
| 20260507012049 | 11 | 103 | 0.0 | 0.0 | 0.00 | 0.53 | 0.53 | 73 | 1011.5 |
| 20260507011548 | 11 | 246 | 3.2 | 4.8 | 0.00 | 0.53 | 0.53 | 75 | 1011.3 |
| 20260507011044 | 11 | 129 | 0.0 | 1.6 | 0.00 | 0.53 | 0.53 | 76 | 1011.6 |
| 20260507010538 | 11 | 146 | 0.0 | 1.6 | 0.00 | 0.53 | 0.53 | 76 | 1011.6 |
| 20260507010035 | 11 | 147 | 1.6 | 1.6 | 0.00 | 0.53 | 0.53 | 75 | 1011.7 |
| 20260507005533 | 11 | 326 | 6.4 | 9.7 | 0.00 | 0.53 | 0.53 | 76 | 1012.2 |
| 20260507005028 | 11 | 157 | 1.6 | 1.6 | 0.00 | 0.53 | 0.53 | 75 | 1011.7 |
| 20260507004526 | 11 | 333 | 4.8 | 4.8 | 0.00 | 0.53 | 0.53 | 76 | 1011.6 |
| 20260507004023 | 11 | 140 | 0.0 | 0.0 | 0.00 | 0.53 | 0.53 | 76 | 1011.3 |
| 20260507003518 | 11 | 278 | 1.6 | 1.6 | 0.00 | 0.53 | 0.53 | 77 | 1011.4 |
| 20260507003014 | 11 | 103 | 0.0 | 0.0 | 0.00 | 0.53 | 0.53 | 76 | 1011.3 |
| 20260507002510 | 11 | 117 | 0.0 | 0.0 | 0.00 | 0.53 | 0.53 | 77 | 1011.6 |
| 20260507002007 | 11 | 128 | 0.0 | 0.0 | 0.00 | 0.53 | 0.53 | 77 | 1011.4 |
| 20260507001503 | 11 | 137 | 0.0 | 0.0 | 0.00 | 0.53 | 0.53 | 77 | 1011.3 |
| 20260507001001 | 11 | 162 | 3.2 | 4.8 | 0.00 | 0.53 | 0.53 | 78 | 1011.3 |
| 20260507000456 | 11 | 129 | 0.0 | 0.0 | 0.00 | 0.53 | 0.53 | 78 | 1011.1 |
| 20260506235952 | 11 | 134 | 1.6 | 1.6 | 0.00 | 0.53 | 0.53 | 78 | 1010.9 |
| 20260506235450 | 11 | 137 | 0.0 | 0.0 | 0.00 | 0.53 | 0.53 | 77 | 1010.9 |
| 20260506234945 | 11 | 124 | 0.0 | 0.0 | 0.00 | 0.53 | 0.53 | 78 | 1010.9 |
| 20260506234443 | 11 | 110 | 3.2 | 4.8 | 0.00 | 0.53 | 0.53 | 77 | 1010.7 |
| 20260506233941 | 11 | 166 | 3.2 | 4.8 | 0.00 | 0.53 | 0.53 | 78 | 1010.4 |
| 20260506233437 | 11 | 122 | 0.0 | 1.6 | 0.00 | 0.53 | 0.53 | 78 | 1010.4 |
| 20260506232933 | 11 | 81 | 1.6 | 1.6 | 0.00 | 0.53 | 0.53 | 79 | 1010.2 |
| 20260506232430 | 12 | 194 | 1.6 | 1.6 | 0.00 | 0.53 | 0.53 | 80 | 1010.1 |
| 20260506231925 | 12 | 185 | 6.4 | 6.4 | 0.00 | 0.53 | 0.53 | 79 | 1010.1 |
| 20260506231423 | 12 | 53 | 0.0 | 1.6 | 0.00 | 0.53 | 0.53 | 79 | 1010.0 |
| 20260506230920 | 12 | 87 | 3.2 | 4.8 | 0.00 | 0.53 | 0.53 | 79 | 1010.0 |
| 20260506230417 | 12 | 156 | 1.6 | 1.6 | 0.00 | 0.53 | 0.53 | 78 | 1010.0 |
| 20260506225913 | 12 | 323 | 1.6 | 1.6 | 0.00 | 0.53 | 0.53 | 79 | 1010.0 |
| 20260506225411 | 12 | 234 | 3.2 | 4.8 | 0.00 | 0.53 | 0.53 | 79 | 1010.0 |
| 20260506224908 | 12 | 265 | 6.4 | 6.4 | 0.00 | 0.53 | 0.53 | 78 | 1010.2 |
| 20260506224405 | 12 | 139 | 1.6 | 1.6 | 0.00 | 0.53 | 0.53 | 79 | 1010.2 |
| 20260506223901 | 12 | 131 | 0.0 | 0.0 | 0.00 | 0.53 | 0.53 | 79 | 1010.0 |
| 20260506223356 | 12 | 323 | 4.8 | 4.8 | 0.00 | 0.53 | 0.53 | 79 | 1010.0 |
| 20260506222854 | 12 | 176 | 1.6 | 4.8 | 0.00 | 0.53 | 0.53 | 79 | 1009.8 |
| 20260506222349 | 12 | 156 | 0.0 | 1.6 | 0.00 | 0.53 | 0.53 | 80 | 1009.7 |
| 20260506221848 | 12 | 147 | 1.6 | 1.6 | 0.00 | 0.53 | 0.53 | 80 | 1009.6 |
| 20260506221344 | 12 | 200 | 3.2 | 6.4 | 0.00 | 0.53 | 0.53 | 80 | 1009.8 |
| 20260506220842 | 12 | 287 | 0.0 | 1.6 | 0.00 | 0.53 | 0.53 | 79 | 1009.6 |
| 20260506220337 | 12 | 125 | 3.2 | 4.8 | 0.00 | 0.53 | 0.53 | 80 | 1009.6 |
| 20260506215834 | 12 | 145 | 0.0 | 1.6 | 0.00 | 0.53 | 0.53 | 80 | 1009.3 |
| 20260506215330 | 12 | 349 | 6.4 | 9.7 | 0.00 | 0.53 | 0.53 | 79 | 1009.4 |
| 20260506214826 | 12 | 156 | 0.0 | 0.0 | 0.00 | 0.53 | 0.53 | 80 | 1009.4 |
| 20260506214323 | 12 | 75 | 1.6 | 4.8 | 0.00 | 0.53 | 0.53 | 81 | 1009.2 |
| 20260506213821 | 12 | 95 | 3.2 | 4.8 | 0.00 | 0.53 | 0.53 | 80 | 1009.0 |
| 20260506213318 | 13 | 4 | 3.2 | 4.8 | 0.00 | 0.53 | 0.53 | 81 | 1009.1 |
| 20260506212816 | 13 | 48 | 1.6 | 4.8 | 0.00 | 0.53 | 0.53 | 80 | 1008.9 |
| 20260506212311 | 13 | 238 | 4.8 | 6.4 | 0.00 | 0.53 | 0.53 | 80 | 1008.9 |
| 20260506211806 | 13 | 34 | 0.0 | 1.6 | 0.00 | 0.53 | 0.53 | 79 | 1008.8 |
| 20260506211303 | 13 | 136 | 0.0 | 1.6 | 0.00 | 0.53 | 0.53 | 78 | 1008.7 |
| 20260506210801 | 13 | 319 | 9.7 | 11.3 | 0.00 | 0.53 | 0.53 | 79 | 1008.4 |
| 20260506210257 | 13 | 24 | 3.2 | 6.4 | 0.00 | 0.53 | 0.53 | 80 | 1008.6 |
| 20260506205754 | 13 | 232 | 3.2 | 4.8 | 0.00 | 0.53 | 0.53 | 81 | 1008.3 |
| 20260506205250 | 13 | 320 | 9.7 | 11.3 | 0.00 | 0.53 | 0.53 | 81 | 1008.3 |
| 20260506204746 | 13 | 170 | 3.2 | 4.8 | 0.00 | 0.53 | 0.53 | 82 | 1008.2 |
| 20260506204244 | 13 | 116 | 1.6 | 1.6 | 0.00 | 0.53 | 0.53 | 82 | 1008.3 |
| 20260506203742 | 13 | 131 | 3.2 | 4.8 | 0.00 | 0.53 | 0.53 | 82 | 1008.2 |
| 20260506203239 | 13 | 77 | 3.2 | 6.4 | 0.00 | 0.53 | 0.53 | 83 | 1008.2 |
| 20260506202736 | 13 | 353 | 1.6 | 4.8 | 0.00 | 0.53 | 0.53 | 83 | 1008.2 |
| 20260506202233 | 14 | 81 | 1.6 | 1.6 | 0.00 | 0.53 | 0.53 | 84 | 1008.1 |
| 20260506201730 | 14 | 115 | 0.0 | 0.0 | 0.00 | 0.53 | 0.53 | 85 | 1008.1 |
| 20260506201226 | 14 | 115 | 0.0 | 0.0 | 0.00 | 0.53 | 0.53 | 86 | 1008.0 |
| 20260506200723 | 14 | 150 | 1.6 | 1.6 | 0.00 | 0.53 | 0.53 | 85 | 1008.1 |
| 20260506200220 | 14 | 319 | 3.2 | 4.8 | 0.00 | 0.53 | 0.53 | 85 | 1007.9 |
| 20260506195716 | 14 | 204 | 4.8 | 6.4 | 0.00 | 0.53 | 0.53 | 85 | 1008.0 |
| 20260506195212 | 14 | 207 | 0.0 | 4.8 | 0.00 | 0.53 | 0.53 | 85 | 1007.8 |
| 20260506194704 | 15 | 265 | 3.2 | 4.8 | 0.00 | 0.53 | 0.53 | 85 | 1007.7 |
| 20260506194201 | 15 | 186 | 4.8 | 6.4 | 0.00 | 0.53 | 0.53 | 83 | 1007.7 |
| 20260506193658 | 15 | 184 | 1.6 | 1.6 | 0.00 | 0.53 | 0.53 | 82 | 1007.4 |
| 20260506193155 | 15 | 205 | 4.8 | 6.4 | 0.00 | 0.53 | 0.53 | 82 | 1007.3 |
| 20260506192652 | 15 | 33 | 6.4 | 9.7 | 0.00 | 0.53 | 0.53 | 81 | 1007.4 |
| 20260506192148 | 16 | 170 | 1.6 | 1.6 | 0.00 | 0.53 | 0.53 | 82 | 1007.4 |
| 20260506191645 | 16 | 152 | 1.6 | 1.6 | 0.00 | 0.53 | 0.53 | 83 | 1007.1 |
| 20260506191141 | 16 | 175 | 4.8 | 6.4 | 0.00 | 0.53 | 0.53 | 80 | 1007.2 |
| 20260506190639 | 16 | 214 | 4.8 | 6.4 | 0.00 | 0.53 | 0.53 | 83 | 1007.1 |
| 20260506190135 | 16 | 194 | 4.8 | 6.4 | 0.00 | 0.53 | 0.53 | 84 | 1007.0 |
| 20260506185633 | 15 | 166 | 6.4 | 6.4 | 0.00 | 0.53 | 0.53 | 87 | 1007.1 |
| 20260506185128 | 15 | 171 | 1.6 | 1.6 | 0.00 | 0.53 | 0.53 | 89 | 1007.2 |
| 20260506184626 | 15 | 161 | 1.6 | 1.6 | 0.00 | 0.53 | 0.53 | 89 | 1007.3 |
| 20260506184123 | 15 | 169 | 1.6 | 1.6 | 0.00 | 0.53 | 0.53 | 93 | 1007.2 |
| 20260506183620 | 15 | 180 | 6.4 | 6.4 | 0.00 | 0.53 | 0.53 | 98 | 1006.9 |
| 20260506183116 | 15 | 136 | 0.0 | 1.6 | 0.00 | 0.53 | 0.53 | 99 | 1007.2 |
| 20260506182614 | 15 | 142 | 0.0 | 1.6 | 0.00 | 0.53 | 0.53 | 99 | 1007.2 |
| 20260506182110 | 15 | 142 | 0.0 | 1.6 | 0.00 | 0.53 | 0.53 | 99 | 1007.3 |
| 20260506181608 | 15 | 146 | 0.0 | 1.6 | 0.00 | 0.53 | 0.53 | 99 | 1007.3 |
| 20260506181105 | 15 | 155 | 0.0 | 1.6 | 0.00 | 0.53 | 0.53 | 99 | 1007.4 |
| 20260506180602 | 15 | 169 | 1.6 | 1.6 | 0.00 | 0.53 | 0.53 | 99 | 1007.3 |
| 20260506180058 | 15 | 161 | 1.6 | 1.6 | 0.00 | 0.53 | 0.53 | 99 | 1007.2 |
| 20260506175554 | 15 | 160 | 3.2 | 4.8 | 0.00 | 0.53 | 0.53 | 99 | 1007.2 |
| 20260506175051 | 15 | 143 | 0.0 | 0.0 | 0.00 | 0.53 | 0.53 | 99 | 1007.0 |
| 20260506174550 | 15 | 157 | 3.2 | 4.8 | 0.00 | 0.53 | 0.53 | 99 | 1007.2 |
| 20260506174045 | 15 | 148 | 1.6 | 1.6 | 0.00 | 0.53 | 0.53 | 99 | 1007.1 |
| 20260506173544 | 15 | 143 | 0.0 | 0.0 | 0.00 | 0.53 | 0.53 | 99 | 1007.0 |
| 20260506173040 | 15 | 152 | 1.6 | 1.6 | 0.00 | 0.53 | 0.53 | 99 | 1007.0 |
| 20260506172537 | 15 | 156 | 0.0 | 1.6 | 0.00 | 0.53 | 0.53 | 99 | 1006.9 |
| 20260506172033 | 15 | 143 | 1.6 | 1.6 | 0.00 | 0.53 | 0.53 | 99 | 1006.8 |
| 20260506171531 | 14 | 140 | 0.0 | 0.0 | 0.00 | 0.53 | 0.53 | 99 | 1006.8 |
| 20260506171028 | 14 | 152 | 0.0 | 1.6 | 0.00 | 0.53 | 0.53 | 99 | 1006.9 |
| 20260506170526 | 14 | 150 | 1.6 | 1.6 | 0.00 | 0.53 | 0.53 | 99 | 1006.9 |
| 20260506170018 | 14 | 140 | 0.0 | 0.0 | 0.00 | 0.53 | 0.53 | 99 | 1007.0 |
| 20260506165516 | 14 | 156 | 1.6 | 1.6 | 0.00 | 0.53 | 0.53 | 99 | 1006.9 |
| 20260506165012 | 14 | 165 | 1.6 | 1.6 | 0.00 | 0.53 | 0.53 | 99 | 1007.0 |
| 20260506164508 | 14 | 190 | 4.8 | 4.8 | 0.00 | 0.53 | 0.53 | 99 | 1006.9 |
| 20260506164006 | 14 | 140 | 3.2 | 4.8 | 0.00 | 0.53 | 0.53 | 99 | 1006.8 |
| 20260506163502 | 14 | 152 | 3.2 | 4.8 | 0.00 | 0.53 | 0.53 | 99 | 1006.7 |
| 20260506162956 | 14 | 179 | 3.2 | 4.8 | 0.00 | 0.53 | 0.53 | 99 | 1007.0 |
| 20260506162454 | 14 | 172 | 3.2 | 4.8 | 0.00 | 0.53 | 0.53 | 99 | 1007.0 |
| 20260506161951 | 14 | 193 | 6.4 | 6.4 | 0.00 | 0.53 | 0.53 | 98 | 1006.9 |
| 20260506161449 | 14 | 164 | 1.6 | 1.6 | 0.00 | 0.53 | 0.53 | 98 | 1006.9 |
| 20260506160946 | 13 | 176 | 3.2 | 4.8 | 0.00 | 0.53 | 0.53 | 98 | 1007.0 |
| 20260506160443 | 13 | 164 | 1.6 | 1.6 | 0.18 | 0.53 | 0.53 | 98 | 1007.1 |
| 20260506155941 | 13 | 153 | 0.0 | 0.0 | 0.18 | 0.53 | 0.53 | 98 | 1006.9 |
| 20260506155438 | 13 | 183 | 4.8 | 4.8 | 0.00 | 0.51 | 0.51 | 98 | 1006.9 |
| 20260506153605 | 13 | 149 | 0.0 | 0.0 | 0.00 | 0.51 | 0.51 | 98 | 1006.9 |
| 20260506153102 | 13 | 151 | 0.0 | 1.6 | 0.00 | 0.51 | 0.51 | 98 | 1006.7 |
| 20260506152559 | 13 | 146 | 0.0 | 0.0 | 0.00 | 0.51 | 0.51 | 98 | 1006.7 |
| 20260506152057 | 13 | 146 | 0.0 | 0.0 | 0.00 | 0.51 | 0.51 | 98 | 1006.8 |
| 20260506151555 | 13 | 145 | 0.0 | 0.0 | 0.00 | 0.51 | 0.51 | 99 | 1006.5 |
| 20260506151052 | 13 | 154 | 1.6 | 1.6 | 0.00 | 0.51 | 0.51 | 99 | 1006.5 |
| 20260506150548 | 13 | 149 | 0.0 | 1.6 | 0.00 | 0.51 | 0.51 | 99 | 1006.6 |
| 20260506150045 | 13 | 133 | 0.0 | 0.0 | 0.00 | 0.51 | 0.51 | 99 | 1006.4 |
| 20260506145542 | 13 | 138 | 0.0 | 0.0 | 0.00 | 0.51 | 0.51 | 99 | 1006.3 |
| 20260506145039 | 13 | 142 | 0.0 | 0.0 | 0.00 | 0.51 | 0.51 | 99 | 1006.5 |
| 20260506144536 | 13 | 138 | 0.0 | 0.0 | 0.00 | 0.51 | 0.51 | 99 | 1006.3 |
| 20260506144033 | 13 | 130 | 0.0 | 0.0 | 0.00 | 0.51 | 0.51 | 99 | 1006.4 |
| 20260506143531 | 13 | 124 | 0.0 | 0.0 | 0.00 | 0.51 | 0.51 | 99 | 1006.4 |
| 20260506143029 | 13 | 124 | 0.0 | 0.0 | 0.00 | 0.51 | 0.51 | 99 | 1006.5 |
| 20260506142527 | 13 | 124 | 0.0 | 0.0 | 0.00 | 0.51 | 0.51 | 99 | 1006.2 |
| 20260506142025 | 13 | 116 | 0.0 | 0.0 | 0.00 | 0.51 | 0.51 | 99 | 1006.2 |
| 20260506141522 | 13 | 125 | 0.0 | 0.0 | 0.00 | 0.51 | 0.51 | 99 | 1006.4 |
| 20260506141020 | 13 | 126 | 0.0 | 0.0 | 0.00 | 0.51 | 0.51 | 99 | 1006.3 |
| 20260506140517 | 13 | 132 | 0.0 | 0.0 | 0.00 | 0.51 | 0.51 | 99 | 1006.2 |
| 20260506140015 | 13 | 133 | 0.0 | 0.0 | 0.00 | 0.51 | 0.51 | 99 | 1006.5 |
| 20260506135511 | 13 | 133 | 0.0 | 0.0 | 0.00 | 0.51 | 0.51 | 99 | 1006.5 |
| 20260506135008 | 13 | 133 | 0.0 | 0.0 | 0.00 | 0.51 | 0.51 | 99 | 1006.4 |
| 20260506134504 | 13 | 133 | 0.0 | 0.0 | 0.13 | 0.51 | 0.51 | 99 | 1006.5 |
| 20260506134000 | 12 | 133 | 0.0 | 0.0 | 0.13 | 0.51 | 0.51 | 99 | 1006.7 |
| 20260506133457 | 12 | 133 | 0.0 | 0.0 | 0.13 | 0.48 | 0.48 | 99 | 1006.7 |
| 20260506132954 | 12 | 133 | 0.0 | 0.0 | 0.13 | 0.48 | 0.48 | 99 | 1006.8 |
| 20260506132451 | 12 | 133 | 0.0 | 0.0 | 0.13 | 0.46 | 0.46 | 99 | 1006.6 |
| 20260506131948 | 12 | 133 | 0.0 | 0.0 | 0.13 | 0.46 | 0.46 | 99 | 1006.6 |
| 20260506131445 | 12 | 142 | 0.0 | 0.0 | 0.00 | 0.43 | 0.43 | 99 | 1006.6 |
| 20260506130942 | 13 | 135 | 1.6 | 1.6 | 0.18 | 0.43 | 0.43 | 99 | 1006.5 |
| 20260506130439 | 13 | 127 | 0.0 | 0.0 | 0.18 | 0.43 | 0.43 | 99 | 1006.4 |
| 20260506125936 | 12 | 126 | 0.0 | 0.0 | 0.00 | 0.41 | 0.41 | 99 | 1006.6 |
| 20260506125435 | 12 | 126 | 0.0 | 0.0 | 0.00 | 0.41 | 0.41 | 99 | 1006.6 |